Location: Unspecified
(0.0000°N, 0.0000°E)
Time: 11:08:46
(UTC+00:00)

SEEDS - Pass Details

Date: 29 September 2021
Orbit: 585 x 601 km, 97.6° (Epoch: 15 October)

Event Time Altitude Azimuth Distance (km) Brightness Sun altitude
Rises 04:17:18 0° 8° (N) 2,833 ? -23.2°
Reaches altitude 10° 04:19:27 10° 7° (N) 1,933 ? -22.7°
Maximum altitude 04:23:39 76° 282° (WNW) 620 ? -21.7°
Drops below altitude 10° 04:27:52 10° 196° (SSW) 1,940 ? -20.6°
Sets 04:30:02 0° 194° (SSW) 2,843 ? -20.1°
